Date,TemperatureHighF,TemperatureAvgF,TemperatureLowF,DewpointHighF,DewpointAvgF,DewpointLowF,HumidityHigh,HumidityAvg,HumidityLow,PressureMaxIn,PressureMinIn,WindSpeedMaxMPH,WindSpeedAvgMPH,GustSpeedMaxMPH,PrecipitationSumIn
2014-1-1,56.2,50.6,43.8,48.0,40.3,34.3,77,68,56,30.05,29.88,10,4,18,0.00
2014-1-2,61.6,55.8,51.3,50.7,45.9,41.6,83,70,59,29.91,29.80,10,4,15,0.00
2014-1-3,61.2,57.2,52.2,53.0,49.1,45.6,89,75,59,30.03,29.85,11,4,18,0.00
2014-1-4,56.9,54.3,49.8,53.8,49.6,39.0,92,84,62,30.02,29.60,15,4,22,0.26
2014-1-5,56.0,50.1,43.9,41.6,35.9,27.1,83,59,40,30.01,29.69,21,5,25,0.09
2014-1-6,58.9,52.3,47.3,51.2,43.5,36.6,86,72,59,30.03,29.95,7,2,13,0.00
2014-1-7,59.3,53.2,48.5,52.3,47.1,42.6,89,80,66,30.16,30.02,4,2,6,0.00
2014-1-8,58.0,53.5,48.9,51.2,49.4,46.1,91,86,71,30.24,30.14,5,2,7,0.00
2014-1-9,55.0,50.2,45.4,49.0,45.9,43.0,92,85,72,30.19,30.07,5,2,7,0.01
2014-1-10,53.9,50.9,46.2,46.4,44.5,42.4,87,79,70,30.11,30.03,8,3,10,0.00
2014-1-11,58.3,54.9,51.3,51.2,48.0,44.4,83,77,71,30.12,30.02,8,4,11,0.00
2014-1-12,58.4,54.3,50.7,51.6,48.6,43.6,90,81,72,30.17,30.11,9,2,12,0.06
2014-1-13,57.6,52.4,46.0,49.7,45.9,41.1,87,79,69,30.11,29.87,8,3,16,0.07
2014-1-14,56.5,48.7,42.5,41.7,37.9,34.0,84,67,47,29.89,29.74,11,4,15,0.00
2014-1-15,54.4,50.4,45.7,46.3,41.2,37.2,80,71,61,29.97,29.83,11,5,15,0.00
2014-1-16,57.6,54.5,52.0,53.0,48.8,42.0,89,81,65,29.83,29.68,8,4,14,0.00
2014-1-17,59.0,53.3,50.4,43.3,40.1,34.0,72,61,39,29.68,29.59,11,5,18,0.00
2014-1-18,57.8,53.5,47.7,53.4,48.3,40.8,89,82,69,29.62,29.35,10,5,14,0.00
2014-1-19,56.5,51.6,48.6,52.0,46.3,43.3,90,82,73,29.51,29.30,9,4,12,0.28
2014-1-20,56.5,49.2,44.2,43.3,40.5,37.4,86,73,52,29.83,29.51,5,2,7,0.00
2014-1-21,55.1,48.1,42.6,43.0,37.5,32.1,85,68,44,29.90,29.83,5,2,7,0.00
2014-1-22,53.3,49.0,44.2,44.3,39.0,33.4,86,69,52,29.94,29.78,9,4,13,0.09
2014-1-23,55.6,49.3,45.1,45.0,42.0,39.2,86,76,61,30.13,29.94,5,2,8,0.00
2014-1-24,58.6,51.4,45.8,46.6,41.2,36.3,78,68,48,30.10,29.83,8,3,12,0.00
2014-1-25,56.5,52.0,47.4,52.1,47.6,40.9,90,85,69,30.05,29.87,8,3,12,0.00
2014-1-26,59.6,53.4,48.0,51.6,47.1,40.2,91,79,63,30.08,29.79,6,2,6,0.00
2014-1-27,57.3,51.9,45.5,49.1,45.6,41.2,88,79,66,29.79,29.59,13,4,15,0.02
2014-1-28,53.6,48.5,42.9,41.8,33.1,29.3,90,56,42,29.65,29.39,11,5,16,0.00
2014-1-29,57.6,49.5,40.9,43.9,38.0,34.3,78,65,44,29.47,29.36,17,6,23,0.01
2014-1-30,55.0,48.9,45.1,43.7,41.2,37.5,86,75,58,29.68,29.46,14,4,17,0.48
2014-1-31,55.6,48.5,43.2,42.7,39.3,33.9,84,71,59,29.86,29.66,6,2,9,0.00